Theta_e
326 327 323 321 320 319 317 315 311 306 307 314 313 322 318 318 318 318 316 314 312 313 315 314 313 310 309 308 308 308 308 309 310 312 314 315 316 318
322 323 320 318 318 317 315 314 314 311 307 312 312 318 319 315 314 313 312 312 313 316 315 311 310 310 310 307 307 307 307 307 307 308 309 310 312 313
320 318 317 318 315 315 315 314 313 312 307 310 311 313 318 314 312 312 310 312 313 314 314 312 310 310 308 307 307 306 306 306 306 306 307 308 309 310
315 315 314 315 315 315 313 314 311 311 305 307 306 306 311 313 312 311 311 310 313 312 312 310 308 307 307 307 307 307 306 305 305 305 306 306 307 310
315 313 312 311 310 308 309 307 305 303 303 300 301 305 306 308 306 310 310 311 308 311 309 309 306 307 307 308 308 308 305 303 302 302 302 303 304 306
313 311 308 306 304 303 302 302 302 300 302 300 300 302 303 305 304 302 302 304 305 306 308 305 306 308 309 309 309 305 303 302 302 302 302 301 302 303
312 309 305 302 300 300 299 299 301 299 298 297 297 298 298 298 297 299 299 301 302 304 303 303 304 306 308 308 306 302 301 301 301 301 301 300 300 301
308 307 306 299 299 302 300 300 299 299 297 295 296 295 297 296 297 296 297 297 295 303 301 299 304 303 304 304 301 302 302 301 301 300 301 300 300 300
306 305 301 298 295 299 301 303 303 297 296 298 296 296 296 296 297 297 297 298 299 301 299 294 300 297 301 298 300 300 301 300 300 300 300 299 299 298
300 300 299 296 291 293 300 300 300 301 301 298 299 299 300 299 299 298 299 302 302 302 298 290 295 295 297 298 300 301 299 299 298 300 300 299 298 298
297 293 295 292 288 289 297 297 297 298 300 300 299 297 295 295 295 297 297 296 296 297 297 292 293 292 293 296 300 297 298 297 299 298 299 299 298 298
300 295 288 289 289 289 295 294 293 294 298 299 302 303 303 303 300 304 298 295 296 295 298 292 291 289 287 293 293 297 296 298 297 298 299 300 298 300
297 295 292 289 288 288 290 294 292 293 298 300 299 298 299 300 299 301 303 299 296 296 297 293 290 290 288 287 290 293 296 295 296 298 299 297 297 297
294 295 294 289 289 289 291 289 290 294 297 296 295 295 295 295 298 300 304 305 304 301 297 295 290 289 287 286 287 291 293 295 297 297 297 298 298 298
295 290 290 292 292 292 290 291 294 295 295 294 294 294 296 297 301 300 302 305 304 305 299 295 292 290 289 287 287 289 291 294 297 295 296 296 297 300
294 298 296 294 293 294 296 296 296 295 294 294 294 295 296 296 296 298 298 298 297 298 304 298 295 291 288 290 290 289 291 290 294 295 296 297 300 298
293 298 297 296 295 295 296 296 296 295 294 294 294 293 293 294 294 298 298 297 296 296 298 298 297 294 293 291 289 290 290 291 294 295 295 296 298 296
296 295 294 294 294 294 294 294 295 294 294 294 294 293 292 293 293 295 297 296 295 296 296 298 293 290 291 292 293 289 290 290 294 294 295 295 295 295
295 294 294 293 293 293 293 293 293 293 295 294 293 293 292 293 293 294 295 295 294 296 296 297 293 289 285 283 289 293 289 290 292 291 293 295 295 294
295 294 293 293 293 293 293 293 293 293 293 293 293 292 293 293 294 293 293 293 294 295 295 295 293 289 285 284 284 288 291 292 291 290 291 296 294 295
294 293 294 293 293 293 293 293 293 292 292 292 292 293 294 293 293 292 293 290 291 294 293 292 294 289 292 291 286 286 290 295 294 291 290 292 293 291
294 294 293 293 293 293 293 292 292 291 291 291 291 293 294 293 292 293 293 294 294 294 293 293 294 294 290 287 285 286 288 293 297 295 295 293 291 288
294 294 293 293 293 293 292 292 291 290 289 290 291 293 294 294 292 294 294 295 294 293 293 292 293 293 289 287 286 286 287 290 293 292 292 294 294 295
Wind_Speed
4 6 6 6 6 6 7 8 9 11 11 10 10 11 10 11 13 13 14 18 24 21 13 12 13 18 22 22 21 22 23 23 22 21 21 21 22 20
5 5 7 7 7 7 7 8 8 9 10 11 11 11 11 11 13 13 14 20 19 12 10 9 16 19 18 19 20 21 22 22 21 20 21 22 23 23
5 6 6 6 6 7 7 7 8 9 11 11 11 12 12 11 11 11 14 13 12 17 9 12 19 13 16 19 20 19 18 18 18 19 19 20 20 21
4 6 7 7 8 8 8 9 9 9 10 13 12 11 10 12 12 15 11 13 13 16 21 18 16 23 22 20 18 19 15 15 17 16 15 16 19 18
6 7 8 9 9 9 9 9 9 9 10 11 11 10 10 10 14 12 12 13 12 22 20 19 27 22 23 23 18 14 8 8 12 16 18 18 17 18
7 8 9 9 9 10 9 10 10 10 10 10 11 11 11 13 11 13 13 12 13 14 15 21 22 22 17 13 13 23 9 8 10 13 14 16 15 16
5 8 8 10 9 5 8 9 10 10 10 11 11 12 13 13 14 13 13 12 14 12 13 13 13 12 11 15 17 24 17 16 14 16 16 16 14 13
6 5 7 13 12 12 7 8 6 8 11 10 11 13 14 14 13 14 13 14 15 12 14 15 12 13 13 12 23 22 13 11 17 19 16 16 16 16
7 7 8 9 13 12 15 9 6 7 7 9 12 13 15 15 14 15 15 14 13 11 13 13 13 14 14 15 20 20 12 17 20 15 19 17 17 17
10 9 9 11 13 13 11 11 11 9 10 8 9 11 11 12 11 13 16 15 12 10 9 9 13 12 14 13 20 16 22 21 23 22 18 18 19 18
10 11 10 11 13 18 12 12 12 10 11 9 12 15 15 16 15 11 12 14 13 12 6 10 11 15 12 9 8 28 21 24 20 24 20 19 17 15
9 10 12 9 11 13 13 12 12 13 13 13 11 10 10 10 9 10 13 14 13 14 10 11 13 11 9 6 15 11 13 19 24 21 22 15 16 11
6 6 7 5 8 12 11 10 12 13 12 11 11 11 12 12 12 12 12 12 13 12 8 6 11 10 6 13 9 12 11 13 12 12 12 19 16 12
7 6 6 7 6 9 10 11 15 11 11 11 12 12 12 13 12 12 13 11 12 7 4 5 8 10 10 12 9 12 11 10 9 9 12 13 15 12
6 2 7 11 14 8 15 13 10 11 11 11 12 12 12 13 13 13 13 13 14 12 4 7 11 13 10 9 10 11 16 11 6 13 11 11 9 7
4 2 3 7 9 8 8 9 10 10 11 11 12 12 12 12 12 12 12 12 12 12 7 11 15 14 10 11 10 10 11 9 13 12 12 9 5 9
10 6 7 7 8 9 9 10 10 11 12 12 12 13 13 13 13 13 12 13 13 14 14 11 16 14 12 11 8 8 11 10 11 13 12 8 7 10
3 7 8 8 9 9 10 10 11 13 12 12 12 13 14 13 14 13 13 13 14 14 14 13 14 15 13 5 5 9 9 11 12 13 11 6 8 11
8 8 7 8 9 9 10 10 11 12 13 12 13 13 14 13 15 13 13 14 15 13 14 15 12 15 17 14 7 14 11 13 13 11 8 6 8 9
7 8 8 8 8 9 9 10 10 11 12 12 12 13 13 13 13 14 14 16 16 15 14 15 10 13 13 11 9 11 24 10 9 13 10 6 6 11
7 7 7 8 8 9 10 10 11 11 11 12 12 12 12 13 13 14 14 19 16 14 15 16 11 11 10 9 9 8 12 13 15 13 9 4 3 7
7 7 7 7 8 9 10 10 11 12 12 12 12 11 11 13 14 15 15 15 15 15 15 14 14 12 11 11 12 15 11 11 8 21 24 22 7 5
7 7 7 8 9 9 10 10 11 12 12 12 12 10 11 11 14 13 14 14 15 14 17 15 15 12 12 12 12 10 12 11 6 9 12 22 21 21
Wind_Direction
42 12 334 10 348 331 330 322 322 318 319 328 330 358 342 328 322 332 327 334 312 295 293 292 316 315 310 319 316 311 305 304 301 300 296 289 282 278
24 26 3 16 331 338 335 315 328 318 317 330 337 323 343 315 332 330 330 307 302 301 317 339 309 313 315 314 307 308 305 301 299 300 295 288 286 284
32 24 21 8 353 359 326 1 328 344 320 325 319 337 316 335 318 339 315 312 326 320 342 329 327 342 313 307 303 300 297 300 304 302 301 299 290 282
42 34 27 10 354 10 334 1 345 339 327 315 331 321 328 323 347 323 323 333 330 339 343 324 357 338 321 306 294 286 289 291 295 299 299 304 306 295
56 49 35 21 15 1 344 352 344 336 321 325 321 325 332 354 339 326 344 325 331 345 339 355 338 315 308 304 297 315 336 340 317 316 309 302 300 300
76 52 39 32 10 3 352 355 357 333 339 331 330 334 344 359 333 338 332 335 340 332 336 341 316 319 301 358 18 360 6 336 333 322 316 314 306 302
65 88 57 27 14 338 353 356 349 348 339 342 336 339 343 343 343 337 330 337 342 341 336 332 330 319 336 331 355 337 322 321 330 323 313 307 302 297
62 40 106 44 3 342 255 275 288 341 349 346 335 340 343 339 337 334 327 338 334 339 341 331 331 338 324 339 331 320 308 320 320 313 314 305 296 294
48 32 26 34 10 351 338 340 314 214 263 337 341 335 330 335 328 327 327 313 328 340 346 325 339 322 336 318 325 323 325 316 320 306 310 300 298 290
46 38 37 28 10 352 336 357 350 4 344 337 324 320 321 317 317 319 308 319 324 355 357 314 327 320 317 315 311 303 329 332 326 309 308 303 303 299
75 46 37 36 359 357 9 1 351 5 331 276 269 262 269 272 272 306 336 333 334 352 7 332 332 317 318 303 325 339 323 318 321 322 310 302 300 298
117 113 63 20 349 351 8 359 358 354 329 343 347 349 353 352 345 344 340 336 332 331 10 342 337 346 322 309 328 322 318 320 323 319 313 313 325 313
58 67 42 5 345 324 326 2 334 314 337 351 353 357 353 358 351 351 343 328 335 325 25 1 331 328 301 309 315 312 325 318 318 312 315 321 305 295
50 41 44 319 287 283 321 316 304 329 0 359 359 358 353 358 344 342 329 335 327 350 18 4 346 320 311 308 312 316 314 311 306 319 322 313 311 299
69 115 266 277 284 228 241 282 345 12 1 3 358 356 353 352 340 337 331 354 334 346 77 33 10 331 318 298 307 318 321 329 324 328 323 321 317 327
179 150 353 293 277 304 18 13 21 10 0 2 358 353 353 347 351 335 339 358 340 343 351 42 13 338 315 318 314 309 321 328 323 330 324 314 327 345
316 44 30 26 22 18 17 14 19 8 4 2 360 357 359 344 351 335 347 352 342 336 339 17 9 345 326 306 312 318 321 326 326 327 324 324 19 356
61 45 36 25 21 16 11 9 16 14 1 2 1 2 0 340 344 344 350 352 343 337 341 3 359 348 346 339 347 324 329 331 336 334 334 328 18 15
49 43 36 27 18 15 9 13 10 12 357 3 1 5 359 339 344 346 353 344 342 342 342 358 6 355 348 348 300 323 333 330 341 345 340 351 25 17
51 39 32 25 18 14 10 13 5 9 1 3 1 5 355 343 341 349 355 339 339 346 346 358 6 6 348 332 318 312 322 340 351 353 345 4 24 0
44 41 30 21 19 14 9 10 5 12 2 0 360 5 350 342 342 349 347 331 335 345 352 352 352 25 339 319 331 329 325 353 26 14 348 314 51 13
33 36 30 20 21 15 8 7 5 12 3 358 357 359 347 339 343 347 340 338 347 345 352 336 338 16 354 348 342 334 333 339 26 31 31 44 21 37
32 19 31 24 19 16 10 5 6 10 4 352 352 350 338 333 341 348 331 345 343 349 349 340 338 14 356 346 343 338 331 339 342 37 38 35 47 52